Time,TemperatureF,DewpointF,PressureIn,WindDirection,WindDirectionDegrees,WindSpeedMPH,WindSpeedGustMPH,Humidity,HourlyPrecipIn,Conditions,Clouds,dailyrainin,SoftwareType,DateUTC
2013-11-22 00:01:00,72.2,70.7,30.12,NNE,15,4.0,4.0,95,0.00,RA,,0.00,WeatherDisplay:10.37,2013-11-22 05:01:00,
2013-11-22 00:02:00,72.2,70.7,30.12,North,8,5.8,5.8,95,0.00,RA,,0.00,WeatherDisplay:10.37,2013-11-22 05:02:00,
2013-11-22 00:05:00,72.2,70.7,30.12,NNE,25,4.6,4.6,95,0.00,RA,,0.00,WeatherDisplay:10.37,2013-11-22 05:05:00,
2013-11-22 00:10:00,72.2,70.7,30.12,NNE,23,3.5,3.5,95,0.00,RA,,0.00,WeatherDisplay:10.37,2013-11-22 05:10:00,
2013-11-22 00:15:00,72.0,70.5,30.11,North,359,3.5,3.5,95,0.00,CLR,,0.00,WeatherDisplay:10.37,2013-11-22 05:15:00,
2013-11-22 00:20:00,71.9,70.4,30.12,North,358,3.5,3.5,95,0.00,CLR,,0.00,WeatherDisplay:10.37,2013-11-22 05:20:00,
2013-11-22 00:25:00,71.8,70.3,30.11,North,359,2.3,2.3,95,0.00,CLR,,0.00,WeatherDisplay:10.37,2013-11-22 05:25:00,
2013-11-22 00:30:00,71.8,70.3,30.11,NNW,342,3.5,3.5,95,0.00,CLR,,0.00,WeatherDisplay:10.37,2013-11-22 05:30:00,
2013-11-22 00:35:00,71.7,70.5,30.11,NNW,345,3.5,3.5,96,0.00,CLR,,0.00,WeatherDisplay:10.37,2013-11-22 05:35:00,
2013-11-22 00:40:00,71.7,70.5,30.11,North,352,3.5,3.5,96,0.00,CLR,,0.00,WeatherDisplay:10.37,2013-11-22 05:40:00,
2013-11-22 00:45:00,71.7,70.5,30.11,NW,321,2.3,2.3,96,0.00,CLR,,0.00,WeatherDisplay:10.37,2013-11-22 05:45:00,
2013-11-22 00:50:00,71.8,70.6,30.11,NNW,345,3.5,3.5,96,0.00,CLR,,0.00,WeatherDisplay:10.37,2013-11-22 05:50:00,
2013-11-22 00:55:00,71.8,70.6,30.11,North,349,4.0,4.0,96,0.00,CLR,,0.00,WeatherDisplay:10.37,2013-11-22 05:55:00,
2013-11-22 01:00:00,72.0,70.8,30.11,NNW,345,3.5,3.5,96,0.00,CLR,,0.00,WeatherDisplay:10.37,2013-11-22 06:00:00,
2013-11-22 01:05:00,72.0,70.8,30.11,North,1,3.5,3.5,96,0.00,CLR,,0.00,WeatherDisplay:10.37,2013-11-22 06:05:00,
2013-11-22 01:10:00,71.9,70.7,30.11,NNW,332,3.5,3.5,96,0.00,CLR,,0.00,WeatherDisplay:10.37,2013-11-22 06:10:00,
2013-11-22 01:15:00,71.9,70.7,30.11,NNW,333,2.3,2.3,96,0.00,CLR,,0.00,WeatherDisplay:10.37,2013-11-22 06:15:00,
2013-11-22 01:20:00,71.9,70.7,30.11,NNW,342,2.3,2.3,96,0.00,CLR,,0.00,WeatherDisplay:10.37,2013-11-22 06:20:00,
2013-11-22 01:25:00,71.9,70.7,30.11,NNW,347,1.2,1.2,96,0.00,CLR,,0.00,WeatherDisplay:10.37,2013-11-22 06:25:00,
2013-11-22 01:30:00,71.9,70.7,30.11,NNW,338,4.0,4.0,96,0.00,CLR,,0.00,WeatherDisplay:10.37,2013-11-22 06:30:00,
2013-11-22 01:35:00,71.9,70.7,30.10,NNW,346,3.0,3.0,96,0.00,CLR,,0.00,WeatherDisplay:10.37,2013-11-22 06:35:00,
2013-11-22 01:40:00,71.8,70.9,30.10,NW,326,3.5,3.5,97,0.00,CLR,,0.00,WeatherDisplay:10.37,2013-11-22 06:40:00,
2013-11-22 01:45:00,71.9,71.0,30.10,North,5,3.5,3.5,97,0.00,CLR,,0.00,WeatherDisplay:10.37,2013-11-22 06:45:00,
2013-11-22 01:50:00,71.8,70.9,30.10,NNE,25,4.0,4.0,97,0.00,CLR,,0.00,WeatherDisplay:10.37,2013-11-22 06:50:00,
2013-11-22 01:55:00,71.8,70.9,30.10,North,360,4.6,4.6,97,0.00,CLR,,0.00,WeatherDisplay:10.37,2013-11-22 06:55:00,
2013-11-22 02:00:00,71.7,70.8,30.10,North,349,5.8,5.8,97,0.00,CLR,,0.00,WeatherDisplay:10.37,2013-11-22 07:00:00,
2013-11-22 02:05:00,71.7,70.8,30.10,NNE,19,3.5,3.5,97,0.00,CLR,,0.00,WeatherDisplay:10.37,2013-11-22 07:05:00,
2013-11-22 02:10:00,71.6,70.7,30.10,NNW,330,2.3,2.3,97,0.00,CLR,,0.00,WeatherDisplay:10.37,2013-11-22 07:10:00,
2013-11-22 02:15:00,71.6,70.7,30.10,NNE,20,5.8,5.8,97,0.00,CLR,,0.00,WeatherDisplay:10.37,2013-11-22 07:15:00,
2013-11-22 02:20:00,71.7,70.8,30.10,NNW,346,6.9,6.9,97,0.00,CLR,,0.00,WeatherDisplay:10.37,2013-11-22 07:20:00,
2013-11-22 02:25:00,71.7,70.8,30.10,NNW,337,4.6,4.6,97,0.00,CLR,,0.00,WeatherDisplay:10.37,2013-11-22 07:25:00,
2013-11-22 02:30:00,71.7,70.8,30.10,North,8,3.5,3.5,97,0.00,CLR,,0.00,WeatherDisplay:10.37,2013-11-22 07:30:00,
2013-11-22 02:35:00,71.6,70.4,30.10,NNW,338,8.1,8.1,96,0.00,CLR,,0.00,WeatherDisplay:10.37,2013-11-22 07:35:00,
2013-11-22 02:40:00,71.6,70.4,30.10,North,356,3.5,3.5,96,0.00,CLR,,0.00,WeatherDisplay:10.37,2013-11-22 07:40:00,
2013-11-22 02:45:00,71.6,70.4,30.09,NNW,333,3.5,3.5,96,0.00,CLR,,0.00,WeatherDisplay:10.37,2013-11-22 07:45:00,
2013-11-22 02:50:00,71.6,70.4,30.09,NNE,30,6.0,6.0,96,0.00,CLR,,0.00,WeatherDisplay:10.37,2013-11-22 07:50:00,
2013-11-22 02:55:00,71.6,70.4,30.09,NE,39,6.9,6.9,96,0.00,CLR,,0.00,WeatherDisplay:10.37,2013-11-22 07:55:00,
2013-11-22 02:56:00,71.6,70.4,30.09,NE,34,4.0,4.0,96,0.00,CLR,,0.00,WeatherDisplay:10.37,2013-11-22 07:56:00,
2013-11-22 03:00:00,71.6,70.4,30.09,NE,34,4.0,4.0,96,0.00,CLR,,0.00,WeatherDisplay:10.37,2013-11-22 08:00:00,
2013-11-22 03:05:00,71.6,70.4,30.09,NE,34,4.0,4.0,96,0.00,CLR,,0.00,WeatherDisplay:10.37,2013-11-22 08:05:00,
2013-11-22 03:10:00,71.5,70.3,30.09,NNE,23,4.6,4.6,96,0.00,CLR,,0.00,WeatherDisplay:10.37,2013-11-22 08:10:00,
2013-11-22 03:15:00,71.5,70.3,30.09,NNE,19,6.9,6.9,96,0.00,CLR,,0.00,WeatherDisplay:10.37,2013-11-22 08:15:00,
2013-11-22 03:20:00,71.5,70.3,30.09,NE,44,5.8,5.8,96,0.00,CLR,,0.00,WeatherDisplay:10.37,2013-11-22 08:20:00,
2013-11-22 03:25:00,71.4,70.2,30.09,NNE,23,5.8,5.8,96,0.00,CLR,,0.00,WeatherDisplay:10.37,2013-11-22 08:25:00,
2013-11-22 03:30:00,71.4,70.2,30.10,North,352,5.8,5.8,96,0.00,CLR,,0.00,WeatherDisplay:10.37,2013-11-22 08:30:00,
2013-11-22 03:35:00,71.3,70.1,30.10,NNE,23,8.0,8.0,96,0.00,CLR,,0.00,WeatherDisplay:10.37,2013-11-22 08:35:00,
2013-11-22 03:40:00,71.3,70.1,30.10,NNE,23,9.2,9.2,96,0.00,CLR,,0.00,WeatherDisplay:10.37,2013-11-22 08:40:00,
2013-11-22 03:45:00,71.2,70.0,30.09,NNE,30,6.9,6.9,96,0.00,CLR,,0.00,WeatherDisplay:10.37,2013-11-22 08:45:00,
2013-11-22 03:50:00,71.2,70.0,30.10,NE,37,7.0,7.0,96,0.00,CLR,,0.00,WeatherDisplay:10.37,2013-11-22 08:50:00,
2013-11-22 03:55:00,71.2,70.0,30.09,NNE,23,5.8,5.8,96,0.00,CLR,,0.00,WeatherDisplay:10.37,2013-11-22 08:55:00,
2013-11-22 04:00:00,71.1,69.9,30.09,NNE,33,4.6,4.6,96,0.00,CLR,,0.00,WeatherDisplay:10.37,2013-11-22 09:00:00,
2013-11-22 04:05:00,71.1,69.9,30.10,NE,49,6.9,6.9,96,0.00,CLR,,0.00,WeatherDisplay:10.37,2013-11-22 09:05:00,
2013-11-22 04:10:00,71.1,69.9,30.09,NNE,20,8.1,8.1,96,0.00,CLR,,0.00,WeatherDisplay:10.37,2013-11-22 09:10:00,
2013-11-22 04:15:00,71.1,69.9,30.09,NNE,33,8.1,8.1,96,0.00,CLR,,0.00,WeatherDisplay:10.37,2013-11-22 09:15:00,
2013-11-22 04:20:00,71.0,69.8,30.09,NE,46,6.0,6.0,96,0.00,CLR,,0.00,WeatherDisplay:10.37,2013-11-22 09:20:00,
2013-11-22 04:25:00,71.0,69.8,30.09,NNE,20,9.2,9.2,96,0.00,CLR,,0.00,WeatherDisplay:10.37,2013-11-22 09:25:00,
2013-11-22 04:30:00,70.9,69.7,30.09,NE,44,5.8,5.8,96,0.00,CLR,,0.00,WeatherDisplay:10.37,2013-11-22 09:30:00,
2013-11-22 04:35:00,70.9,69.7,30.09,NNE,25,4.0,4.0,96,0.00,CLR,,0.00,WeatherDisplay:10.37,2013-11-22 09:35:00,
2013-11-22 04:40:00,70.9,69.7,30.09,NE,37,6.9,6.9,96,0.00,CLR,,0.00,WeatherDisplay:10.37,2013-11-22 09:40:00,
2013-11-22 04:45:00,70.9,69.7,30.09,NE,39,6.9,6.9,96,0.00,CLR,,0.00,WeatherDisplay:10.37,2013-11-22 09:45:00,
2013-11-22 04:50:00,70.9,69.7,30.09,NNE,30,6.0,6.0,96,0.00,CLR,,0.00,WeatherDisplay:10.37,2013-11-22 09:50:00,
2013-11-22 04:55:00,70.8,69.6,30.09,NE,49,4.0,4.0,96,0.00,CLR,,0.00,WeatherDisplay:10.37,2013-11-22 09:55:00,
2013-11-22 05:00:00,70.7,69.5,30.09,ENE,58,3.5,3.5,96,0.00,CLR,,0.00,WeatherDisplay:10.37,2013-11-22 10:00:00,
2013-11-22 05:05:00,70.6,69.4,30.10,NE,53,3.5,3.5,96,0.00,CLR,,0.00,WeatherDisplay:10.37,2013-11-22 10:05:00,
2013-11-22 05:10:00,70.6,69.4,30.10,NE,47,2.3,2.3,96,0.00,CLR,,0.00,WeatherDisplay:10.37,2013-11-22 10:10:00,
2013-11-22 05:15:00,70.5,69.3,30.10,NE,43,4.6,4.6,96,0.00,CLR,,0.00,WeatherDisplay:10.37,2013-11-22 10:15:00,
2013-11-22 05:20:00,70.5,69.6,30.10,NE,43,4.6,4.6,97,0.00,CLR,,0.00,WeatherDisplay:10.37,2013-11-22 10:20:00,
2013-11-22 05:25:00,70.5,69.6,30.11,NE,41,3.5,3.5,97,0.00,CLR,,0.00,WeatherDisplay:10.37,2013-11-22 10:25:00,
2013-11-22 05:30:00,70.5,69.6,30.11,NNE,33,5.0,5.0,97,0.00,CLR,,0.00,WeatherDisplay:10.37,2013-11-22 10:30:00,
2013-11-22 05:35:00,70.6,69.7,30.11,NE,35,5.8,5.8,97,0.00,CLR,,0.00,WeatherDisplay:10.37,2013-11-22 10:35:00,
2013-11-22 05:40:00,70.7,69.8,30.11,NE,53,3.5,3.5,97,0.00,CLR,,0.00,WeatherDisplay:10.37,2013-11-22 10:40:00,
2013-11-22 05:45:00,70.7,69.8,30.11,NNE,33,6.0,6.0,97,0.00,CLR,,0.00,WeatherDisplay:10.37,2013-11-22 10:45:00,
2013-11-22 05:50:00,70.8,69.9,30.11,NE,35,6.9,6.9,97,0.00,CLR,,0.00,WeatherDisplay:10.37,2013-11-22 10:50:00,
2013-11-22 05:55:00,70.9,70.0,30.11,NE,40,5.8,5.8,97,0.00,CLR,,0.00,WeatherDisplay:10.37,2013-11-22 10:55:00,
2013-11-22 06:00:00,70.9,70.0,30.11,NE,39,6.9,6.9,97,0.00,CLR,,0.00,WeatherDisplay:10.37,2013-11-22 11:00:00,
2013-11-22 06:05:00,70.9,70.0,30.11,NE,46,4.6,4.6,97,0.00,CLR,,0.00,WeatherDisplay:10.37,2013-11-22 11:05:00,
2013-11-22 06:10:00,70.8,69.9,30.11,North,1,5.8,5.8,97,0.00,CLR,,0.00,WeatherDisplay:10.37,2013-11-22 11:10:00,
2013-11-22 06:15:00,70.8,69.9,30.11,NE,36,4.6,4.6,97,0.00,CLR,,0.00,WeatherDisplay:10.37,2013-11-22 11:15:00,
2013-11-22 06:20:00,70.7,69.8,30.11,NNE,19,4.0,4.0,97,0.00,CLR,,0.00,WeatherDisplay:10.37,2013-11-22 11:20:00,
2013-11-22 06:25:00,70.7,69.8,30.11,NNE,29,4.6,4.6,97,0.00,CLR,,0.00,WeatherDisplay:10.37,2013-11-22 11:25:00,
2013-11-22 06:30:00,70.6,69.7,30.11,NNE,30,3.5,3.5,97,0.00,CLR,,0.00,WeatherDisplay:10.37,2013-11-22 11:30:00,
2013-11-22 06:35:00,70.5,69.6,30.11,NE,34,3.5,3.5,97,0.00,CLR,,0.00,WeatherDisplay:10.37,2013-11-22 11:35:00,
2013-11-22 06:40:00,70.5,69.6,30.11,NNE,22,3.5,3.5,97,0.00,CLR,,0.00,WeatherDisplay:10.37,2013-11-22 11:40:00,
2013-11-22 06:45:00,70.4,69.5,30.11,NNE,19,4.0,4.0,97,0.00,CLR,,0.00,WeatherDisplay:10.37,2013-11-22 11:45:00,
2013-11-22 06:50:00,70.4,69.5,30.12,NNE,22,3.5,3.5,97,0.00,CLR,,0.00,WeatherDisplay:10.37,2013-11-22 11:50:00,
2013-11-22 06:55:00,70.4,69.5,30.12,NNE,33,3.5,3.5,97,0.00,CLR,,0.00,WeatherDisplay:10.37,2013-11-22 11:55:00,
2013-11-22 07:00:00,70.4,69.5,30.12,NNE,26,3.5,3.5,97,0.00,CLR,,0.00,WeatherDisplay:10.37,2013-11-22 12:00:00,
2013-11-22 07:05:00,70.5,69.6,30.12,NNE,33,4.0,4.0,97,0.00,CLR,,0.00,WeatherDisplay:10.37,2013-11-22 12:05:00,
2013-11-22 07:10:00,70.5,69.6,30.12,NE,37,4.6,4.6,97,0.00,CLR,,0.00,WeatherDisplay:10.37,2013-11-22 12:10:00,
2013-11-22 07:15:00,70.7,69.8,30.12,NNE,23,3.5,3.5,97,0.00,CLR,,0.00,WeatherDisplay:10.37,2013-11-22 12:15:00,
2013-11-22 07:20:00,70.8,69.9,30.12,NNE,23,3.5,3.5,97,0.00,CLR,,0.00,WeatherDisplay:10.37,2013-11-22 12:20:00,
2013-11-22 07:25:00,70.9,70.0,30.12,North,4,2.3,2.3,97,0.00,CLR,,0.00,WeatherDisplay:10.37,2013-11-22 12:25:00,
2013-11-22 07:30:00,71.0,70.1,30.13,NNE,18,3.0,3.0,97,0.00,CLR,,0.00,WeatherDisplay:10.37,2013-11-22 12:30:00,
2013-11-22 07:35:00,71.1,70.2,30.13,NNE,20,3.5,3.5,97,0.00,CLR,,0.00,WeatherDisplay:10.37,2013-11-22 12:35:00,
2013-11-22 07:40:00,71.1,70.2,30.13,North,356,5.0,5.0,97,0.00,CLR,,0.00,WeatherDisplay:10.37,2013-11-22 12:40:00,
2013-11-22 07:45:00,71.1,70.2,30.13,NNE,23,4.0,4.0,97,0.00,CLR,,0.00,WeatherDisplay:10.37,2013-11-22 12:45:00,
2013-11-22 07:50:00,71.2,70.3,30.13,NNE,23,5.8,5.8,97,0.00,CLR,,0.00,WeatherDisplay:10.37,2013-11-22 12:50:00,
2013-11-22 07:55:00,71.2,70.3,30.13,NE,54,3.5,3.5,97,0.00,CLR,,0.00,WeatherDisplay:10.37,2013-11-22 12:55:00,
2013-11-22 08:00:00,71.4,70.5,30.13,NNE,19,4.6,4.6,97,0.00,CLR,,0.00,WeatherDisplay:10.37,2013-11-22 13:00:00,
2013-11-22 08:05:00,71.5,70.6,30.13,NE,44,5.8,5.8,97,0.00,CLR,,0.00,WeatherDisplay:10.37,2013-11-22 13:05:00,
2013-11-22 08:10:00,71.6,70.7,30.13,NNE,29,5.0,5.0,97,0.00,CLR,,0.00,WeatherDisplay:10.37,2013-11-22 13:10:00,
2013-11-22 08:15:00,71.7,70.8,30.13,NE,49,6.0,6.0,97,0.00,CLR,,0.00,WeatherDisplay:10.37,2013-11-22 13:15:00,
2013-11-22 08:20:00,72.0,71.1,30.13,NNE,26,4.0,4.0,97,0.00,CLR,,0.00,WeatherDisplay:10.37,2013-11-22 13:20:00,
2013-11-22 08:25:00,72.6,71.7,30.13,NNE,30,5.8,5.8,97,0.00,CLR,,0.00,WeatherDisplay:10.37,2013-11-22 13:25:00,
2013-11-22 08:30:00,73.3,72.1,30.13,NNE,19,7.0,7.0,96,0.00,CLR,,0.00,WeatherDisplay:10.37,2013-11-22 13:30:00,
2013-11-22 08:35:00,73.7,72.2,30.14,ENE,75,8.0,8.0,95,0.00,CLR,,0.00,WeatherDisplay:10.37,2013-11-22 13:35:00,
2013-11-22 08:40:00,74.3,72.5,30.14,NE,39,6.9,6.9,94,0.00,CLR,,0.00,WeatherDisplay:10.37,2013-11-22 13:40:00,
2013-11-22 08:45:00,74.7,72.5,30.14,North,9,10.4,10.4,93,0.00,CLR,,0.00,WeatherDisplay:10.37,2013-11-22 13:45:00,
2013-11-22 08:50:00,75.0,72.5,30.14,NNE,26,11.5,11.5,92,0.00,CLR,,0.00,WeatherDisplay:10.37,2013-11-22 13:50:00,
2013-11-22 08:55:00,75.6,72.8,30.14,NE,41,11.5,11.5,91,0.00,CLR,,0.00,WeatherDisplay:10.37,2013-11-22 13:55:00,
2013-11-22 09:00:00,76.0,72.5,30.14,NE,46,12.7,12.7,89,0.00,CLR,,0.00,WeatherDisplay:10.37,2013-11-22 14:00:00,
2013-11-22 09:05:00,76.3,72.5,30.14,NE,39,11.5,11.5,88,0.00,CLR,,0.00,WeatherDisplay:10.37,2013-11-22 14:05:00,
2013-11-22 09:10:00,76.7,72.5,30.14,ENE,61,11.5,11.5,87,0.00,CLR,,0.00,WeatherDisplay:10.37,2013-11-22 14:10:00,
2013-11-22 09:15:00,76.9,72.7,30.14,NE,51,11.5,11.5,87,0.00,CLR,,0.00,WeatherDisplay:10.37,2013-11-22 14:15:00,
2013-11-22 09:20:00,77.0,72.5,30.15,NE,54,16.1,16.1,86,0.00,CLR,,0.00,WeatherDisplay:10.37,2013-11-22 14:20:00,
2013-11-22 09:25:00,77.4,72.9,30.14,NE,49,11.5,11.5,86,0.00,CLR,,0.00,WeatherDisplay:10.37,2013-11-22 14:25:00,
2013-11-22 09:30:00,77.7,72.8,30.14,NNE,32,6.9,6.9,85,0.00,CLR,,0.00,WeatherDisplay:10.37,2013-11-22 14:30:00,
2013-11-22 09:35:00,78.1,73.2,30.14,NNE,23,11.5,11.5,85,0.00,CLR,,0.00,WeatherDisplay:10.37,2013-11-22 14:35:00,
2013-11-22 09:40:00,78.5,73.3,30.14,NE,46,8.1,8.1,84,0.00,CLR,,0.00,WeatherDisplay:10.37,2013-11-22 14:40:00,
2013-11-22 09:45:00,78.9,73.3,30.14,NE,50,10.4,10.4,83,0.00,CLR,,0.00,WeatherDisplay:10.37,2013-11-22 14:45:00,
2013-11-22 09:50:00,79.2,73.2,30.14,ENE,70,11.5,11.5,82,0.00,CLR,,0.00,WeatherDisplay:10.37,2013-11-22 14:50:00,
2013-11-22 09:55:00,79.2,72.9,30.14,ENE,61,12.0,12.0,81,0.00,CLR,,0.00,WeatherDisplay:10.37,2013-11-22 14:55:00,
2013-11-22 10:00:00,79.4,72.7,30.14,ENE,63,18.0,18.0,80,0.00,CLR,,0.00,WeatherDisplay:10.37,2013-11-22 15:00:00,
2013-11-22 10:05:00,79.3,72.6,30.14,NE,47,12.7,12.7,80,0.00,CLR,,0.00,WeatherDisplay:10.37,2013-11-22 15:05:00,
2013-11-22 10:10:00,79.1,72.4,30.14,NE,50,12.7,12.7,80,0.00,CLR,,0.00,WeatherDisplay:10.37,2013-11-22 15:10:00,
2013-11-22 10:15:00,79.2,72.9,30.14,NE,50,11.5,11.5,81,0.00,CLR,,0.00,WeatherDisplay:10.37,2013-11-22 15:15:00,
2013-11-22 10:20:00,79.6,72.5,30.14,NNE,22,17.3,17.3,79,0.00,CLR,,0.00,WeatherDisplay:10.37,2013-11-22 15:20:00,
2013-11-22 10:25:00,79.7,72.6,30.14,NE,49,9.2,9.2,79,0.00,CLR,,0.00,WeatherDisplay:10.37,2013-11-22 15:25:00,
2013-11-22 10:30:00,80.2,72.7,30.14,ENE,71,11.5,11.5,78,0.00,CLR,,0.00,WeatherDisplay:10.37,2013-11-22 15:30:00,
2013-11-22 10:35:00,80.1,72.2,30.14,NE,41,10.4,10.4,77,0.00,CLR,,0.00,WeatherDisplay:10.37,2013-11-22 15:35:00,
2013-11-22 10:40:00,80.6,73.1,30.14,ENE,75,9.0,9.0,78,0.00,CLR,,0.00,WeatherDisplay:10.37,2013-11-22 15:40:00,
2013-11-22 10:45:00,80.8,72.1,30.14,NE,41,16.1,16.1,75,0.00,CLR,,0.00,WeatherDisplay:10.37,2013-11-22 15:45:00,
2013-11-22 10:48:00,80.7,72.0,30.14,ENE,57,11.5,11.5,75,0.00,CLR,,0.00,WeatherDisplay:10.37,2013-11-22 15:48:00,
2013-11-22 10:50:00,80.7,72.0,30.14,ENE,57,11.5,11.5,75,0.00,CLR,,0.00,WeatherDisplay:10.37,2013-11-22 15:50:00,
2013-11-22 10:55:00,80.7,72.0,30.14,ENE,57,11.5,11.5,75,0.00,CLR,,0.00,WeatherDisplay:10.37,2013-11-22 15:55:00,
2013-11-22 11:00:00,81.3,72.2,30.13,NE,41,12.7,12.7,74,0.00,CLR,,0.00,WeatherDisplay:10.37,2013-11-22 16:00:00,
2013-11-22 11:04:00,81.5,72.8,30.13,ENE,66,5.8,5.8,75,0.00,CLR,,0.00,WeatherDisplay:10.37,2013-11-22 16:04:00,
2013-11-22 11:05:00,81.5,72.8,30.13,ENE,66,5.8,5.8,75,0.00,CLR,,0.00,WeatherDisplay:10.37,2013-11-22 16:05:00,
2013-11-22 11:10:00,81.5,72.8,30.13,ENE,66,5.8,5.8,75,0.00,CLR,,0.00,WeatherDisplay:10.37,2013-11-22 16:10:00,
2013-11-22 11:15:00,81.4,72.3,30.13,NE,44,13.0,13.0,74,0.00,CLR,,0.00,WeatherDisplay:10.37,2013-11-22 16:15:00,
2013-11-22 11:20:00,81.3,72.2,30.13,NE,41,11.5,11.5,74,0.00,CLR,,0.00,WeatherDisplay:10.37,2013-11-22 16:20:00,
2013-11-22 11:25:00,81.5,72.0,30.12,NE,55,11.5,11.5,73,0.00,CLR,,0.00,WeatherDisplay:10.37,2013-11-22 16:25:00,
2013-11-22 11:30:00,82.0,72.9,30.12,NNE,32,11.5,11.5,74,0.00,CLR,,0.00,WeatherDisplay:10.37,2013-11-22 16:30:00,
2013-11-22 11:35:00,82.6,73.1,30.12,NNE,25,11.5,11.5,73,0.00,CLR,,0.00,WeatherDisplay:10.37,2013-11-22 16:35:00,
2013-11-22 11:40:00,82.7,73.2,30.12,NE,47,10.4,10.4,73,0.00,CLR,,0.00,WeatherDisplay:10.37,2013-11-22 16:40:00,
2013-11-22 11:45:00,82.5,72.1,30.12,NNE,15,9.2,9.2,71,0.00,CLR,,0.00,WeatherDisplay:10.37,2013-11-22 16:45:00,
2013-11-22 11:50:00,82.0,72.5,30.11,NE,41,9.2,9.2,73,0.00,CLR,,0.00,WeatherDisplay:10.37,2013-11-22 16:50:00,
2013-11-22 11:55:00,82.3,72.4,30.11,NNE,13,6.9,6.9,72,0.00,CLR,,0.00,WeatherDisplay:10.37,2013-11-22 16:55:00,
2013-11-22 12:00:00,83.3,73.3,30.11,North,352,11.5,11.5,72,0.00,CLR,,0.00,WeatherDisplay:10.37,2013-11-22 17:00:00,
2013-11-22 12:05:00,83.0,71.8,30.11,NNE,23,16.1,16.1,69,0.00,CLR,,0.00,WeatherDisplay:10.37,2013-11-22 17:05:00,
2013-11-22 12:10:00,83.3,72.1,30.10,NNE,25,11.5,11.5,69,0.00,CLR,,0.00,WeatherDisplay:10.37,2013-11-22 17:10:00,
2013-11-22 12:15:00,83.7,72.4,30.10,NE,55,15.0,15.0,69,0.00,CLR,,0.00,WeatherDisplay:10.37,2013-11-22 17:15:00,
2013-11-22 12:20:00,83.7,72.0,30.10,NE,44,10.4,10.4,68,0.00,CLR,,0.00,WeatherDisplay:10.37,2013-11-22 17:20:00,
2013-11-22 12:25:00,83.9,71.8,30.09,North,354,11.5,11.5,67,0.00,CLR,,0.00,WeatherDisplay:10.37,2013-11-22 17:25:00,
2013-11-22 12:30:00,83.9,71.8,30.09,NE,55,11.5,11.5,67,0.00,CLR,,0.00,WeatherDisplay:10.37,2013-11-22 17:30:00,
2013-11-22 12:35:00,83.1,71.4,30.09,NNE,25,6.9,6.9,68,0.00,CLR,,0.00,WeatherDisplay:10.37,2013-11-22 17:35:00,
2013-11-22 12:40:00,82.7,71.9,30.08,NE,46,9.0,9.0,70,0.00,CLR,,0.00,WeatherDisplay:10.37,2013-11-22 17:40:00,
2013-11-22 12:45:00,82.5,71.7,30.08,NE,37,8.1,8.1,70,0.00,CLR,,0.00,WeatherDisplay:10.37,2013-11-22 17:45:00,
2013-11-22 12:50:00,82.6,72.2,30.08,ENE,72,6.9,6.9,71,0.00,CLR,,0.00,WeatherDisplay:10.37,2013-11-22 17:50:00,
2013-11-22 12:55:00,83.0,72.2,30.08,NNE,32,10.0,10.0,70,0.00,CLR,,0.00,WeatherDisplay:10.37,2013-11-22 17:55:00,
2013-11-22 13:00:00,83.7,72.4,30.08,NNE,20,11.5,11.5,69,0.00,CLR,,0.00,WeatherDisplay:10.37,2013-11-22 18:00:00,
2013-11-22 13:05:00,84.0,72.7,30.07,NE,34,11.5,11.5,69,0.00,CLR,,0.00,WeatherDisplay:10.37,2013-11-22 18:05:00,
2013-11-22 13:11:00,84.1,72.4,30.07,NNE,13,12.7,12.7,68,0.00,CLR,,0.00,WeatherDisplay:10.37,2013-11-22 18:11:00,
2013-11-22 13:16:00,83.9,72.2,30.07,North,359,11.5,11.5,68,0.00,CLR,,0.00,WeatherDisplay:10.37,2013-11-22 18:16:00,
2013-11-22 13:21:00,84.3,72.1,30.06,NE,35,12.0,12.0,67,0.00,CLR,,0.00,WeatherDisplay:10.37,2013-11-22 18:21:00,
2013-11-22 13:26:00,84.3,72.6,30.06,NNE,31,11.5,11.5,68,0.00,CLR,,0.00,WeatherDisplay:10.37,2013-11-22 18:26:00,
2013-11-22 13:31:00,84.3,72.6,30.06,NNE,23,12.0,12.0,68,0.00,CLR,,0.00,WeatherDisplay:10.37,2013-11-22 18:31:00,
2013-11-22 13:36:00,84.4,72.7,30.06,NNE,30,10.4,10.4,68,0.00,CLR,,0.00,WeatherDisplay:10.37,2013-11-22 18:36:00,
2013-11-22 13:41:00,84.5,72.3,30.06,NNE,15,15.0,15.0,67,0.00,CLR,,0.00,WeatherDisplay:10.37,2013-11-22 18:41:00,
2013-11-22 13:46:00,84.1,72.4,30.06,NNE,20,9.2,9.2,68,0.00,CLR,,0.00,WeatherDisplay:10.37,2013-11-22 18:46:00,
2013-11-22 13:51:00,83.9,71.8,30.06,North,349,12.7,12.7,67,0.00,CLR,,0.00,WeatherDisplay:10.37,2013-11-22 18:51:00,
2013-11-22 13:56:00,83.4,71.3,30.06,NNW,336,11.5,11.5,67,0.00,CLR,,0.00,WeatherDisplay:10.37,2013-11-22 18:56:00,
2013-11-22 14:01:00,82.9,71.3,30.06,NNE,33,10.4,10.4,68,0.00,CLR,,0.00,WeatherDisplay:10.37,2013-11-22 19:01:00,
2013-11-22 14:06:00,82.7,71.9,30.06,NE,41,6.9,6.9,70,0.00,CLR,,0.00,WeatherDisplay:10.37,2013-11-22 19:06:00,
2013-11-22 14:11:00,82.5,71.7,30.05,NE,49,7.0,7.0,70,0.00,CLR,,0.00,WeatherDisplay:10.37,2013-11-22 19:11:00,
2013-11-22 14:16:00,82.6,71.8,30.05,ENE,60,5.8,5.8,70,0.00,CLR,,0.00,WeatherDisplay:10.37,2013-11-22 19:16:00,
2013-11-22 14:21:00,82.6,71.4,30.05,NE,53,12.7,12.7,69,0.00,CLR,,0.00,WeatherDisplay:10.37,2013-11-22 19:21:00,
2013-11-22 14:26:00,82.4,72.0,30.05,NNE,22,8.1,8.1,71,0.00,CLR,,0.00,WeatherDisplay:10.37,2013-11-22 19:26:00,
2013-11-22 14:31:00,82.1,71.3,30.05,North,11,11.5,11.5,70,0.00,CLR,,0.00,WeatherDisplay:10.37,2013-11-22 19:31:00,
2013-11-22 14:36:00,82.1,71.3,30.05,NE,34,9.0,9.0,70,0.00,CLR,,0.00,WeatherDisplay:10.37,2013-11-22 19:36:00,
2013-11-22 14:41:00,82.1,71.8,30.05,NNE,18,10.4,10.4,71,0.00,CLR,,0.00,WeatherDisplay:10.37,2013-11-22 19:41:00,
2013-11-22 14:46:00,82.9,72.1,30.05,North,5,8.1,8.1,70,0.00,CLR,,0.00,WeatherDisplay:10.37,2013-11-22 19:46:00,
2013-11-22 14:51:00,83.2,72.0,30.05,NE,50,13.8,13.8,69,0.00,CLR,,0.00,WeatherDisplay:10.37,2013-11-22 19:51:00,
2013-11-22 14:56:00,82.5,71.3,30.05,NNE,33,9.2,9.2,69,0.00,CLR,,0.00,WeatherDisplay:10.37,2013-11-22 19:56:00,
2013-11-22 15:01:00,82.4,71.6,30.05,North,357,4.0,4.0,70,0.00,CLR,,0.00,WeatherDisplay:10.37,2013-11-22 20:01:00,
2013-11-22 15:06:00,82.2,71.0,30.05,ENE,58,12.7,12.7,69,0.00,CLR,,0.00,WeatherDisplay:10.37,2013-11-22 20:06:00,
2013-11-22 15:11:00,82.3,71.1,30.05,ENE,58,9.0,9.0,69,0.00,CLR,,0.00,WeatherDisplay:10.37,2013-11-22 20:11:00,
2013-11-22 15:16:00,82.2,71.0,30.05,NE,41,11.5,11.5,69,0.00,CLR,,0.00,WeatherDisplay:10.37,2013-11-22 20:16:00,
2013-11-22 15:21:00,82.5,71.3,30.05,NE,51,9.2,9.2,69,0.00,CLR,,0.00,WeatherDisplay:10.37,2013-11-22 20:21:00,
2013-11-22 15:26:00,82.6,70.5,30.05,NE,50,9.2,9.2,67,0.00,CLR,,0.00,WeatherDisplay:10.37,2013-11-22 20:26:00,
2013-11-22 15:31:00,82.5,70.9,30.05,NE,34,11.5,11.5,68,0.00,CLR,,0.00,WeatherDisplay:10.37,2013-11-22 20:31:00,
2013-11-22 15:36:00,82.4,70.8,30.05,NNE,30,11.5,11.5,68,0.00,CLR,,0.00,WeatherDisplay:10.37,2013-11-22 20:36:00,
2013-11-22 15:41:00,82.5,71.3,30.05,ENE,74,9.2,9.2,69,0.00,CLR,,0.00,WeatherDisplay:10.37,2013-11-22 20:41:00,
2013-11-22 15:46:00,82.6,71.4,30.05,NE,41,9.0,9.0,69,0.00,CLR,,0.00,WeatherDisplay:10.37,2013-11-22 20:46:00,
2013-11-22 15:51:00,83.2,72.0,30.05,NE,41,6.0,6.0,69,0.00,CLR,,0.00,WeatherDisplay:10.37,2013-11-22 20:51:00,
2013-11-22 15:56:00,83.4,71.3,30.05,North,356,11.5,11.5,67,0.00,CLR,,0.00,WeatherDisplay:10.37,2013-11-22 20:56:00,
2013-11-22 16:01:00,82.8,71.2,30.05,NNE,23,7.0,7.0,68,0.00,CLR,,0.00,WeatherDisplay:10.37,2013-11-22 21:01:00,
2013-11-22 16:06:00,82.6,71.0,30.05,NNE,33,10.4,10.4,68,0.00,CLR,,0.00,WeatherDisplay:10.37,2013-11-22 21:06:00,
2013-11-22 16:11:00,82.5,71.3,30.06,NE,51,11.5,11.5,69,0.00,CLR,,0.00,WeatherDisplay:10.37,2013-11-22 21:11:00,
2013-11-22 16:16:00,82.1,70.9,30.06,NNE,26,7.0,7.0,69,0.00,CLR,,0.00,WeatherDisplay:10.37,2013-11-22 21:16:00,
2013-11-22 16:21:00,81.7,70.5,30.06,NE,46,12.7,12.7,69,0.00,CLR,,0.00,WeatherDisplay:10.37,2013-11-22 21:21:00,
2013-11-22 16:26:00,81.4,70.7,30.06,NE,47,9.2,9.2,70,0.00,CLR,,0.00,WeatherDisplay:10.37,2013-11-22 21:26:00,
2013-11-22 16:31:00,81.2,70.5,30.06,NE,46,9.2,9.2,70,0.00,CLR,,0.00,WeatherDisplay:10.37,2013-11-22 21:31:00,
2013-11-22 16:36:00,81.1,70.4,30.06,NE,51,8.1,8.1,70,0.00,CLR,,0.00,WeatherDisplay:10.37,2013-11-22 21:36:00,
2013-11-22 16:41:00,81.0,70.3,30.06,NE,34,8.1,8.1,70,0.00,CLR,,0.00,WeatherDisplay:10.37,2013-11-22 21:41:00,
2013-11-22 16:46:00,81.0,70.3,30.06,ENE,69,9.2,9.2,70,0.00,CLR,,0.00,WeatherDisplay:10.37,2013-11-22 21:46:00,
2013-11-22 16:51:00,80.9,70.2,30.06,NNE,33,4.0,4.0,70,0.00,CLR,,0.00,WeatherDisplay:10.37,2013-11-22 21:51:00,
2013-11-22 16:56:00,80.7,70.4,30.06,NE,45,8.1,8.1,71,0.00,CLR,,0.00,WeatherDisplay:10.37,2013-11-22 21:56:00,
2013-11-22 17:01:00,80.5,70.2,30.06,NE,41,4.6,4.6,71,0.00,CLR,,0.00,WeatherDisplay:10.37,2013-11-22 22:01:00,
2013-11-22 17:06:00,80.4,69.7,30.06,NE,41,5.8,5.8,70,0.00,CLR,,0.00,WeatherDisplay:10.37,2013-11-22 22:06:00,
2013-11-22 17:11:00,80.2,69.9,30.06,East,90,4.6,4.6,71,0.00,CLR,,0.00,WeatherDisplay:10.37,2013-11-22 22:11:00,
2013-11-22 17:16:00,80.0,70.2,30.06,ENE,68,3.5,3.5,72,0.00,CLR,,0.00,WeatherDisplay:10.37,2013-11-22 22:16:00,
2013-11-22 17:21:00,79.8,70.4,30.06,NE,55,3.5,3.5,73,0.00,CLR,,0.00,WeatherDisplay:10.37,2013-11-22 22:21:00,
2013-11-22 17:26:00,79.6,70.6,30.06,North,3,3.0,3.0,74,0.00,CLR,,0.00,WeatherDisplay:10.37,2013-11-22 22:26:00,
2013-11-22 17:31:00,79.6,70.6,30.07,NE,56,1.2,1.2,74,0.00,CLR,,0.00,WeatherDisplay:10.37,2013-11-22 22:31:00,
2013-11-22 17:36:00,79.6,70.2,30.07,NNE,15,4.0,4.0,73,0.00,CLR,,0.00,WeatherDisplay:10.37,2013-11-22 22:36:00,
2013-11-22 17:41:00,79.6,70.2,30.06,NE,41,3.5,3.5,73,0.00,CLR,,0.00,WeatherDisplay:10.37,2013-11-22 22:41:00,
2013-11-22 17:46:00,79.4,70.0,30.06,NE,46,3.5,3.5,73,0.00,CLR,,0.00,WeatherDisplay:10.37,2013-11-22 22:46:00,
2013-11-22 17:51:00,79.3,70.3,30.06,NE,44,2.3,2.3,74,0.00,CLR,,0.00,WeatherDisplay:10.37,2013-11-22 22:51:00,
2013-11-22 17:56:00,79.1,70.1,30.07,NE,46,3.5,3.5,74,0.00,CLR,,0.00,WeatherDisplay:10.37,2013-11-22 22:56:00,
2013-11-22 18:01:00,79.0,70.0,30.07,NE,47,1.2,1.2,74,0.00,CLR,,0.00,WeatherDisplay:10.37,2013-11-22 23:01:00,
2013-11-22 18:06:00,78.8,70.2,30.07,NE,47,2.3,2.3,75,0.00,CLR,,0.00,WeatherDisplay:10.37,2013-11-22 23:06:00,
2013-11-22 18:11:00,78.8,70.2,30.07,NE,47,0.0,0.0,75,0.00,CLR,,0.00,WeatherDisplay:10.37,2013-11-22 23:11:00,
2013-11-22 18:16:00,78.7,70.1,30.07,NE,40,3.5,3.5,75,0.00,CLR,,0.00,WeatherDisplay:10.37,2013-11-22 23:16:00,
2013-11-22 18:21:00,78.6,70.4,30.07,NNE,27,3.5,3.5,76,0.00,CLR,,0.00,WeatherDisplay:10.37,2013-11-22 23:21:00,
2013-11-22 18:26:00,78.5,69.9,30.07,North,360,3.5,3.5,75,0.00,CLR,,0.00,WeatherDisplay:10.37,2013-11-22 23:26:00,
2013-11-22 18:31:00,78.6,70.0,30.08,NE,35,2.3,2.3,75,0.00,CLR,,0.00,WeatherDisplay:10.37,2013-11-22 23:31:00,
2013-11-22 18:36:00,78.5,69.9,30.08,NE,37,6.0,6.0,75,0.00,CLR,,0.00,WeatherDisplay:10.37,2013-11-22 23:36:00,
2013-11-22 18:41:00,78.5,69.9,30.07,North,355,3.0,3.0,75,0.00,CLR,,0.00,WeatherDisplay:10.37,2013-11-22 23:41:00,
2013-11-22 18:46:00,78.4,70.2,30.08,NNE,27,5.0,5.0,76,0.00,CLR,,0.00,WeatherDisplay:10.37,2013-11-22 23:46:00,
2013-11-22 18:51:00,78.3,70.1,30.08,North,356,5.8,5.8,76,0.00,CLR,,0.00,WeatherDisplay:10.37,2013-11-22 23:51:00,
2013-11-22 18:56:00,78.2,70.0,30.08,NNE,26,5.0,5.0,76,0.00,CLR,,0.00,WeatherDisplay:10.37,2013-11-22 23:56:00,
2013-11-22 19:01:00,78.1,69.9,30.08,NW,322,7.0,7.0,76,0.00,CLR,,0.00,WeatherDisplay:10.37,2013-11-23 00:01:00,
2013-11-22 19:06:00,77.9,69.7,30.08,NNE,17,5.8,5.8,76,0.00,CLR,,0.00,WeatherDisplay:10.37,2013-11-23 00:06:00,
2013-11-22 19:11:00,77.8,69.6,30.08,NE,39,6.9,6.9,76,0.00,CLR,,0.00,WeatherDisplay:10.37,2013-11-23 00:11:00,
2013-11-22 19:16:00,77.7,69.9,30.08,North,5,8.1,8.1,77,0.00,CLR,,0.00,WeatherDisplay:10.37,2013-11-23 00:16:00,
2013-11-22 19:21:00,77.5,69.7,30.08,NE,46,6.9,6.9,77,0.00,CLR,,0.00,WeatherDisplay:10.37,2013-11-23 00:21:00,
2013-11-22 19:26:00,77.2,69.4,30.08,NNE,23,6.9,6.9,77,0.00,CLR,,0.00,WeatherDisplay:10.37,2013-11-23 00:26:00,
2013-11-22 19:31:00,77.0,69.6,30.08,NE,44,5.8,5.8,78,0.00,CLR,,0.00,WeatherDisplay:10.37,2013-11-23 00:31:00,
2013-11-22 19:36:00,76.7,69.3,30.08,North,352,4.6,4.6,78,0.00,CLR,,0.00,WeatherDisplay:10.37,2013-11-23 00:36:00,
2013-11-22 19:41:00,76.4,69.4,30.08,NNE,23,4.6,4.6,79,0.00,CLR,,0.00,WeatherDisplay:10.37,2013-11-23 00:41:00,
2013-11-22 19:46:00,76.2,69.2,30.08,North,356,5.8,5.8,79,0.00,CLR,,0.00,WeatherDisplay:10.37,2013-11-23 00:46:00,
2013-11-22 19:51:00,76.1,69.5,30.08,NW,314,4.6,4.6,80,0.00,CLR,,0.00,WeatherDisplay:10.37,2013-11-23 00:51:00,
2013-11-22 19:56:00,75.8,69.2,30.08,NNE,13,4.0,4.0,80,0.00,CLR,,0.00,WeatherDisplay:10.37,2013-11-23 00:56:00,
2013-11-22 20:01:00,75.6,69.4,30.08,NNE,33,3.5,3.5,81,0.00,CLR,,0.00,WeatherDisplay:10.37,2013-11-23 01:01:00,
2013-11-22 20:06:00,75.3,69.1,30.09,NNE,25,3.5,3.5,81,0.00,CLR,,0.00,WeatherDisplay:10.37,2013-11-23 01:06:00,
2013-11-22 20:11:00,75.1,68.9,30.09,NNE,15,3.5,3.5,81,0.00,CLR,,0.00,WeatherDisplay:10.37,2013-11-23 01:11:00,
2013-11-22 20:16:00,75.0,69.1,30.09,NNE,30,4.6,4.6,82,0.00,CLR,,0.00,WeatherDisplay:10.37,2013-11-23 01:16:00,
2013-11-22 20:21:00,74.9,69.0,30.09,NE,34,5.0,5.0,82,0.00,CLR,,0.00,WeatherDisplay:10.37,2013-11-23 01:21:00,
2013-11-22 20:26:00,74.7,68.8,30.09,North,9,4.0,4.0,82,0.00,CLR,,0.00,WeatherDisplay:10.37,2013-11-23 01:26:00,
2013-11-22 20:31:00,74.5,69.0,30.09,North,353,3.5,3.5,83,0.00,CLR,,0.00,WeatherDisplay:10.37,2013-11-23 01:31:00,
2013-11-22 20:36:00,74.3,68.8,30.09,North,349,3.5,3.5,83,0.00,CLR,,0.00,WeatherDisplay:10.37,2013-11-23 01:36:00,
2013-11-22 20:41:00,74.1,68.6,30.09,NNW,347,3.5,3.5,83,0.00,CLR,,0.00,WeatherDisplay:10.37,2013-11-23 01:41:00,
2013-11-22 20:46:00,74.0,68.9,30.09,NE,39,4.0,4.0,84,0.00,CLR,,0.00,WeatherDisplay:10.37,2013-11-23 01:46:00,
2013-11-22 20:51:00,74.0,68.9,30.09,NNE,23,6.0,6.0,84,0.00,CLR,,0.00,WeatherDisplay:10.37,2013-11-23 01:51:00,
2013-11-22 20:56:00,73.9,68.8,30.09,North,5,3.5,3.5,84,0.00,CLR,,0.00,WeatherDisplay:10.37,2013-11-23 01:56:00,
2013-11-22 21:01:00,73.8,68.7,30.09,North,356,3.5,3.5,84,0.00,CLR,,0.00,WeatherDisplay:10.37,2013-11-23 02:01:00,
2013-11-22 21:06:00,73.6,68.5,30.09,NE,43,4.0,4.0,84,0.00,CLR,,0.00,WeatherDisplay:10.37,2013-11-23 02:06:00,
2013-11-22 21:11:00,73.5,68.7,30.09,NE,39,4.6,4.6,85,0.00,CLR,,0.00,WeatherDisplay:10.37,2013-11-23 02:11:00,
2013-11-22 21:16:00,73.4,68.6,30.09,NNE,29,7.0,7.0,85,0.00,CLR,,0.00,WeatherDisplay:10.37,2013-11-23 02:16:00,
2013-11-22 21:21:00,73.3,68.5,30.09,NNE,26,4.0,4.1,85,0.00,CLR,,0.00,WeatherDisplay:10.37,2013-11-23 02:21:00,
2013-11-22 21:26:00,73.2,68.4,30.10,NNE,33,5.8,5.8,85,0.00,CLR,,0.00,WeatherDisplay:10.37,2013-11-23 02:26:00,
2013-11-22 21:31:00,73.0,68.6,30.10,NNE,27,4.0,4.0,86,0.00,CLR,,0.00,WeatherDisplay:10.37,2013-11-23 02:31:00,
2013-11-22 21:36:00,72.9,68.5,30.10,NNE,25,8.1,8.1,86,0.00,CLR,,0.00,WeatherDisplay:10.37,2013-11-23 02:36:00,
2013-11-22 21:41:00,72.9,68.5,30.10,NNE,30,3.5,3.5,86,0.00,CLR,,0.00,WeatherDisplay:10.37,2013-11-23 02:41:00,
2013-11-22 21:46:00,72.7,68.3,30.10,ENE,63,7.0,7.0,86,0.00,CLR,,0.00,WeatherDisplay:10.37,2013-11-23 02:46:00,
2013-11-22 21:51:00,72.6,68.2,30.10,NE,34,3.5,3.5,86,0.00,CLR,,0.00,WeatherDisplay:10.37,2013-11-23 02:51:00,
2013-11-22 21:56:00,72.4,68.3,30.10,NNE,23,4.0,4.0,87,0.00,CLR,,0.00,WeatherDisplay:10.37,2013-11-23 02:56:00,
2013-11-22 22:01:00,72.3,68.2,30.10,North,9,5.0,5.0,87,0.00,CLR,,0.00,WeatherDisplay:10.37,2013-11-23 03:01:00,
2013-11-22 22:06:00,72.2,68.1,30.10,NNE,15,5.8,5.8,87,0.00,CLR,,0.00,WeatherDisplay:10.37,2013-11-23 03:06:00,
2013-11-22 22:11:00,72.1,68.0,30.10,North,9,5.8,5.8,87,0.00,CLR,,0.00,WeatherDisplay:10.37,2013-11-23 03:11:00,
2013-11-22 22:16:00,72.0,67.9,30.10,NE,39,5.8,5.8,87,0.00,CLR,,0.00,WeatherDisplay:10.37,2013-11-23 03:16:00,
2013-11-22 22:21:00,72.0,67.9,30.10,NNE,25,8.1,8.1,87,0.00,CLR,,0.00,WeatherDisplay:10.37,2013-11-23 03:21:00,
2013-11-22 22:26:00,71.9,67.8,30.11,NNE,19,4.6,4.6,87,0.00,CLR,,0.00,WeatherDisplay:10.37,2013-11-23 03:26:00,
2013-11-22 22:31:00,71.9,67.8,30.11,NNE,18,9.2,9.2,87,0.00,CLR,,0.00,WeatherDisplay:10.37,2013-11-23 03:31:00,
2013-11-22 22:36:00,71.8,68.1,30.11,NNE,23,5.8,5.8,88,0.00,CLR,,0.00,WeatherDisplay:10.37,2013-11-23 03:36:00,
2013-11-22 22:41:00,71.6,67.9,30.10,NNW,338,6.9,6.9,88,0.00,CLR,,0.00,WeatherDisplay:10.37,2013-11-23 03:41:00,
2013-11-22 22:46:00,71.5,67.8,30.10,NNW,345,4.6,4.6,88,0.00,CLR,,0.00,WeatherDisplay:10.37,2013-11-23 03:46:00,
2013-11-22 22:51:00,71.4,67.7,30.10,NNE,19,4.6,4.6,88,0.00,CLR,,0.00,WeatherDisplay:10.37,2013-11-23 03:51:00,
2013-11-22 22:56:00,71.4,67.7,30.10,NNW,340,5.8,5.8,88,0.00,CLR,,0.00,WeatherDisplay:10.37,2013-11-23 03:56:00,
2013-11-22 23:01:00,71.3,67.6,30.10,NNE,29,3.5,3.5,88,0.00,CLR,,0.00,WeatherDisplay:10.37,2013-11-23 04:01:00,
2013-11-22 23:06:00,71.2,67.8,30.10,NNE,33,4.6,4.6,89,0.00,CLR,,0.00,WeatherDisplay:10.37,2013-11-23 04:06:00,
2013-11-22 23:11:00,71.2,67.8,30.10,NE,41,3.5,3.5,89,0.00,CLR,,0.00,WeatherDisplay:10.37,2013-11-23 04:11:00,
2013-11-22 23:16:00,71.1,67.7,30.10,NNE,27,4.6,4.6,89,0.00,CLR,,0.00,WeatherDisplay:10.37,2013-11-23 04:16:00,
2013-11-22 23:21:00,71.1,67.7,30.10,North,8,4.0,4.0,89,0.00,CLR,,0.00,WeatherDisplay:10.37,2013-11-23 04:21:00,
2013-11-22 23:26:00,70.9,67.5,30.09,NNW,340,3.5,3.5,89,0.00,CLR,,0.00,WeatherDisplay:10.37,2013-11-23 04:26:00,
2013-11-22 23:31:00,70.9,67.5,30.09,North,1,4.6,4.6,89,0.00,CLR,,0.00,WeatherDisplay:10.37,2013-11-23 04:31:00,
2013-11-22 23:36:00,70.8,67.4,30.09,North,6,5.8,5.8,89,0.00,CLR,,0.00,WeatherDisplay:10.37,2013-11-23 04:36:00,
2013-11-22 23:41:00,70.8,67.7,30.09,NNE,16,3.5,3.5,90,0.00,CLR,,0.00,WeatherDisplay:10.37,2013-11-23 04:41:00,
2013-11-22 23:46:00,70.7,67.6,30.09,NNE,15,4.6,4.6,90,0.00,CLR,,0.00,WeatherDisplay:10.37,2013-11-23 04:46:00,
2013-11-22 23:51:00,70.6,67.5,30.08,North,9,3.5,3.5,90,0.00,CLR,,0.00,WeatherDisplay:10.37,2013-11-23 04:51:00,
2013-11-22 23:56:00,70.5,67.4,30.08,NNE,22,3.5,3.5,90,0.00,CLR,,0.00,WeatherDisplay:10.37,2013-11-23 04:56:00,